OpenBCM V1.13 (Linux)

Packet Radio Mailbox

DB0FHN

[JN59NK Nuernberg]

 Login: GUEST





  
UA9FBV > KEPS     23.08.04 04:12l 207 Lines 5447 Bytes #999 (0) @ AMSAT
BID : ORB04235.W
Read: GUEST
Subj: Orbital Elements  04235.WEATHER
Path: DB0FHN<DB0RGB<OK0PPL<DB0RES<ER3KAZ<UA9FBV
Sent: 040823/0208Z @:UA9FBV.PRM.RUS.AS #:5880 [Perm] GATEWAY $:ORB04235.W
From: UA9FBV@UA9FBV.PRM.RUS.AS
To  : KEPS@AMSAT


HR AMSAT ORBITAL ELEMENTS FOR WEATHER SATELLITES
FROM WA5QGD FORT WORTH,TX August 22, 2004
SEND SUBSCRIBE/UNSUBSCRIBE TO majordomo@amsat.org ONLY
BID: ORB04235.W
TO ALL RADIO AMATEURS BT

Satellite: NOAA-10
Catalog number: 16969
Epoch time:      04235.25885733
Element set:     363
Inclination:       98.7569 deg
RA of node:       234.3997 deg
Eccentricity:    0.0011486
Arg of perigee:   284.4224 deg
Mean anomaly:      75.5681 deg
Mean motion:   14.27208811 rev/day
Decay rate:        9.6e-07 rev/day^2
Epoch rev:           93245
Checksum:              341

Satellite: NOAA-11
Catalog number: 19531
Epoch time:      04235.27498037
Element set:     221
Inclination:       98.8648 deg
RA of node:       318.7405 deg
Eccentricity:    0.0012545
Arg of perigee:    79.7716 deg
Mean anomaly:     280.4848 deg
Mean motion:   14.14726370 rev/day
Decay rate:       1.74e-06 rev/day^2
Epoch rev:           82066
Checksum:              318

Satellite: NOAA-12
Catalog number: 21263
Epoch time:      04235.29485292
Element set:     706
Inclination:       98.6744 deg
RA of node:       222.4026 deg
Eccentricity:    0.0012009
Arg of perigee:   215.7482 deg
Mean anomaly:     144.2903 deg
Mean motion:   14.25405440 rev/day
Decay rate:       1.66e-06 rev/day^2
Epoch rev:           68966
Checksum:              292

Satellite: MET-3/5
Catalog number: 21655
Epoch time:      04232.95581872
Element set:    0646
Inclination:      082.5586 deg
RA of node:       011.4599 deg
Eccentricity:    0.0012028
Arg of perigee:   268.0636 deg
Mean anomaly:     091.9111 deg
Mean motion:   13.16996215 rev/day
Decay rate:        5.1e-07 rev/day^2
Epoch rev:           62566
Checksum:              313

Satellite: MET-2/21
Catalog number: 22782
Epoch time:      04235.60100034
Element set:     985
Inclination:       82.5498 deg
RA of node:       137.8508 deg
Eccentricity:    0.0021155
Arg of perigee:   239.1952 deg
Mean anomaly:     120.7132 deg
Mean motion:   13.83568552 rev/day
Decay rate:       2.33e-06 rev/day^2
Epoch rev:           55428
Checksum:              293

Satellite: OKEAN-4
Catalog number: 23317
Epoch time:      04234.23829755
Element set:     428
Inclination:       82.5414 deg
RA of node:       176.9942 deg
Eccentricity:    0.0024215
Arg of perigee:    46.3096 deg
Mean anomaly:     314.0119 deg
Mean motion:   14.81856959 rev/day
Decay rate:       5.74e-06 rev/day^2
Epoch rev:           53148
Checksum:              314

Satellite: NOAA-14
Catalog number: 23455
Epoch time:      04235.29673438
Element set:     251
Inclination:       99.1339 deg
RA of node:       272.0797 deg
Eccentricity:    0.0010097
Arg of perigee:   120.6667 deg
Mean anomaly:     239.5498 deg
Mean motion:   14.13482351 rev/day
Decay rate:       3.60e-06 rev/day^2
Epoch rev:           49727
Checksum:              321

Satellite: SICH-1
Catalog number: 23657
Epoch time:      04235.54622125
Element set:     233
Inclination:       82.5316 deg
RA of node:       316.5919 deg
Eccentricity:    0.0025401
Arg of perigee:    27.1141 deg
Mean anomaly:     333.1393 deg
Mean motion:   14.80898646 rev/day
Decay rate:       4.95e-06 rev/day^2
Epoch rev:           48375
Checksum:              294

Satellite: NOAA-15
Catalog number: 25338
Epoch time:      04235.26507581
Element set:     704
Inclination:       98.5198 deg
RA of node:       246.6339 deg
Eccentricity:    0.0010912
Arg of perigee:   146.5097 deg
Mean anomaly:     213.6781 deg
Mean motion:   14.24445479 rev/day
Decay rate:        8.8e-07 rev/day^2
Epoch rev:           32619
Checksum:              324

Satellite: RESURS
Catalog number: 25394
Epoch time:      04234.89387537
Element set:     882
Inclination:       98.5774 deg
RA of node:       306.0414 deg
Eccentricity:    0.0000966
Arg of perigee:   355.4876 deg
Mean anomaly:       4.6292 deg
Mean motion:   14.24018970 rev/day
Decay rate:        3.4e-07 rev/day^2
Epoch rev:           31785
Checksum:              321

Satellite: FENGYUN1
Catalog number: 25730
Epoch time:      04234.48891991
Element set:     213
Inclination:       98.6050 deg
RA of node:       242.3209 deg
Eccentricity:    0.0013878
Arg of perigee:   233.2110 deg
Mean anomaly:     126.7783 deg
Mean motion:   14.11777762 rev/day
Decay rate:        4.8e-07 rev/day^2
Epoch rev:           27222
Checksum:              289

Satellite: OKEAN-0
Catalog number: 25860
Epoch time:      04235.51608099
Element set:     237
Inclination:       97.7927 deg
RA of node:       268.0168 deg
Eccentricity:    0.0002194
Arg of perigee:    84.2980 deg
Mean anomaly:     275.8479 deg
Mean motion:   14.73103469 rev/day
Decay rate:       2.15e-06 rev/day^2
Epoch rev:           27403
Checksum:              318

Satellite: NOAA-16
Catalog number: 26536
Epoch time:      04235.36961404
Element set:     994
Inclination:       98.9680 deg
RA of node:       186.8262 deg
Eccentricity:    0.0010190
Arg of perigee:   186.1370 deg
Mean anomaly:     173.9678 deg
Mean motion:   14.12142725 rev/day
Decay rate:       -4.0e-08 rev/day^2
Epoch rev:           20188
Checksum:              314

Satellite: NOAA-17
Catalog number: 27453
Epoch time:      04235.30384318
Element set:      19
Inclination:       98.6954 deg
RA of node:       306.8404 deg
Eccentricity:    0.0011729
Arg of perigee:   197.3451 deg
Mean anomaly:     162.7319 deg
Mean motion:   14.23561736 rev/day
Decay rate:       2.86e-06 rev/day^2
Epoch rev:           11231
Checksum:              300



Read previous mail | Read next mail


 15.06.2026 04:11:54lGo back Go up